sat.trackr.live / text

‹ back to catalog

STARLINK-32151

NORAD 60299 · 2024-132X

PAYLOAD ACTIVE UNKNOWN

§ Identity

Operator
Country
US
Launch date
2024-07-28
Launch site
AFETR
Launch vehicle
Mass (kg)
RCS (m²)

Purposes: comms

External: N2YO · Heavens-Above · Gunter

§ Orbital elements

Epoch: 2026-05-24T22:56:43.965024Z

Period
94.11 min
Inclination
53.1627°
Eccentricity
0.0001307
Mean motion
15.30192440 rev/d
Perigee alt
474.3 km
Apogee alt
476.1 km
Semi-major
6,853.4 km
B*
3.6483e-5
RAAN
29.7352°
Arg perigee
84.0885°
Mean anomaly
276.0264°
Rev number
10,363

§ Raw data

STARLINK-321511 60299U 24132X   26144.95606441  .00000721  00000+0  36483-4 0  99972 60299  53.1627  29.7352 0001307  84.0885 276.0264 15.30192440103633

JSON: /api/v1/satellites/60299 · /tle

For live sub-satellite position, see the globe view (requires WebGL).

§ Visibility from observer

Set your observer location to see the next 7 days of passes ≥ 10°. The values pass through the URL so the page stays shareable.

No JS? Fill the form by hand. The geolocation button needs JavaScript.